Location: Piotrkow Trybunalski
(51.4000°N, 19.6830°E)
Time: 14:35:50
(UTC+01:00)

Vanguard 2 - Pass Details

Date: 06 February 2023
Orbit: 553 x 2927 km, 32.9° (Epoch: 24 March)

Event Time Altitude Azimuth Distance (km) Brightness Sun altitude
Rises 20:35:56 0° 221° (SW) 5,021 11.9 -36.6°
Reaches altitude 10° 20:39:25 10° 211° (SSW) 4,357 11.4 -37.1°
Enters shadow 20:45:09 25° 185° (S) 3,710 10.7 -37.9°
Maximum altitude 20:49:48 31° 156° (SSE) 3,725 - -38.6°
Drops below altitude 10° 21:03:17 10° 105° (ESE) 5,705 - -40.4°
Sets 21:08:40 0° 96° (E) 6,784 - -41.1°
